Regional Weather Roundup
Issued by NWS

Home | Current Version | Previous Version | Graphics & Text | Print | Product List | Glossary On
Versions: 1 2 3 4 5 6 7 8 9 10 11 12 13 14 15 16 17 18 19 20 21 22 23 24 25 26 27 28 29 30 31 32 33 34 35 36 37 38 39 40 41 42 43 44 45 46 47 48 49 50
000
ASUS43 KIND 171509
RWRIN

WEATHER ROUNDUP FOR INDIANA
NATIONAL WEATHER SERVICE INDIANAPOLIS IN
1000 AM EST SAT FEB 17 2018

NOTE: "FAIR" INDICATES FEW OR NO CLOUDS BELOW 12,000 FEET WITH NO
SIGNIFICANT WEATHER AND/OR OBSTRUCTIONS TO VISIBILITY.

* - STATION DOES NOT REPORT WEATHER SUCH AS PRECIPITATION OR FOG.

+ - STATION NOT QUALITY CONTROLLED BY THE NATIONAL WEATHER SERVICE.
    USE DATA WITH CAUTION...ESPECIALLY DEWPOINT AND RELATIVE
    HUMIDITY OBSERVATIONS.

INZ001>003-010>013-019-020-171600-
NORTHWEST INDIANA

CITY           SKY/WX    TMP DP  RH WIND       PRES   REMARKS
GARY /AIRPORT/ CLOUDY    25  19  80 S9        30.10F WCI  15
KNOX *+        FAIR      28  23  80 S8        30.12F WCI  20
LA PORTE +     FAIR      23  19  84 S3        30.10F
MICHIGAN CITY+ FAIR      27  19  74 S6        30.10F WCI  20
MONTICELLO +   CLOUDY    29  25  85 SE5       30.10F WCI  24
RENSSELAER +   FAIR      30  25  80 SE7       30.09F WCI  23
VALPARAISO     FAIR      26  20  77 S6        30.10F WCI  19

$$

LMZ046-743>745-171600-
SOUTHERN LAKE MICHIGAN

STATION/POSITION TIME  TEMP    WIND        PRES    WAVE
                       AIR SEA DIR/SP/G            HT
                 (UTC) (F)     (DEG/KT/KT) (MB)    (FT)
BURNS HARBOR     1440   26     160/ 10/ 14 1019.6F
MICHIGAN CITY    1440   24     150/ 11/ 13   N/A

$$

INZ004-005-014>016-021>024-171600-
NORTH CENTRAL INDIANA

CITY           SKY/WX    TMP DP  RH WIND       PRES   REMARKS
ELKHART        SUNNY     25  19  80 SE5       30.10F WCI  19
GOSHEN         FAIR      28  23  81 S6        30.11F WCI  22
LOGANSPORT +   CLOUDY    30  27  86 SE6       30.12F WCI  24
PERU/GRISSOM   PTSUNNY   29  29 100 S7        30.10F WCI  22
ROCHESTER +    FAIR      32  28  86 S6        30.13S WCI  26
SOUTH BEND     FAIR      25  20  81 S9        30.09F WCI  15
WARSAW +       FAIR      28  25  86 S3        30.12F

$$

INZ006>009-017-018-025>027-171600-
NORTHEAST INDIANA

CITY           SKY/WX    TMP DP  RH WIND       PRES   REMARKS
AUBURN +       FAIR      28  25  86 S3        30.11F
FORT WAYNE     CLOUDY    30  25  81 SE8       30.11F WCI  22
HUNTINGTON +   FAIR      29  24  84 S5        30.12F WCI  23
KENDALLVILLE + FAIR      28  24  86 S6        30.10F WCI  21

$$

INZ028-029-035-036-043>045-051>053-171600-
WEST CENTRAL INDIANA

CITY           SKY/WX    TMP DP  RH WIND       PRES   REMARKS
CRAWFORDSVL +  CLOUDY    29  28  94 SE8       30.09F WCI  21
GREENCASTLE +  CLOUDY    30  27  86 SE9       30.09F WCI  22
LAFAYETTE      CLOUDY    29  26  89 SE5       30.10F WCI  24
TERRE HAUTE    CLOUDY    32  28  85 SE7       30.10F WCI  26

$$

INZ030>032-037>040-046>048-054>057-064-065-171600-
CENTRAL INDIANA

CITY           SKY/WX    TMP DP  RH WIND       PRES   REMARKS
ANDERSON       CLOUDY    30  25  80 SE5       30.12F WCI  25
COLUMBUS       CLOUDY    32  27  80 CALM      30.13F
FISHERS *+       N/A     28  28 100 SE6       30.12F WCI  22
FRANKFORT +    CLOUDY    32  29  89 S9        30.11F WCI  24
GREENWOOD *+   CLOUDY   N/A N/A N/A E6        30.12F
INDIANAPOLIS   CLOUDY    31  25  78 SE12      30.10F WCI  22
-EAGLE CREEK   CLOUDY    32  25  75 SE5       30.11F WCI  27
KOKOMO +       CLOUDY    30  26  85 SE8       30.11F WCI  22
MARION +       CLOUDY    29  25  85 CALM      30.12F
MT COMFORT *+  CLOUDY    30  28  93 SE6       30.13F WCI  24
SHELBYVILLE    CLOUDY    33  26  75 SE6       30.12F WCI  28
ZIONSVILLE +   CLOUDY    29  25  85 SE8       30.11F WCI  21

$$

INZ033-034-041-042-049-050-058-059-171600-
EAST CENTRAL INDIANA

CITY           SKY/WX    TMP DP  RH WIND       PRES   REMARKS
MUNCIE         CLOUDY    31  24  75 SE6       30.11F WCI  25
RICHMOND +     PTSUNNY   32  28  86 SE6       30.13F WCI  26

$$

INZ060-061-067>069-081>083-085>088-171600-
SOUTHWEST INDIANA

CITY           SKY/WX    TMP DP  RH WIND       PRES   REMARKS
EVANSVILLE     LGT SNOW  33  32  96 E3        30.17R VSB 3/4
HUNTINGBURG +  LGT RAIN  34  30  85 NE3       30.17R
WASHINGTON +   CLOUDY    33  29  87 SE10      30.14R WCI  25

$$

INZ062-063-066-070>080-084-089>092-171600-
SOUTH CENTRAL AND SOUTHEAST INDIANA

CITY           SKY/WX    TMP DP  RH WIND       PRES   REMARKS
BATESVILLE +   SUNNY     32  30  93 MISG      30.10F
BEDFORD +      CLOUDY    32  27  80 E3        30.12F
BLOOMINGTON    CLOUDY    32  26  78 SE7       30.13F WCI  26
FRENCH LICK *+ CLOUDY    32  30  93 CALM      30.15R
MADISON *+     CLOUDY    34  28  80 E5        30.12F WCI  30
NORTH VERNON + CLOUDY    32  27  80 E7        30.11F WCI  26
SEYMOUR +      CLOUDY    34  28  80 CALM      30.14F

$$




USA.gov is the U.S. government's official web portal to all federal, state and local government web resources and services.